Location: Aiyede
(8.4833°N, 4.4500°E)
Time: 09:31:17
(UTC+00:00)

FUSE - Pass Details

Date: 24 September 2020
Orbit: 742 x 756 km, 25.0° (Epoch: 21 October)

Event Time Altitude Azimuth Distance (km) Brightness Sun altitude
Rises 18:36:48 0° 254° (WSW) 3,160 8.7 -15.7°
Reaches altitude 10° 18:39:18 10° 258° (WSW) 2,236 7.7 -16.3°
Maximum altitude 18:44:30 57° 336° (NNW) 860 4.4 -17.6°
Enters shadow 18:47:41 23° 48° (NE) 1,530 5.2 -18.4°
